Weather in Ranong

Thailand     9°58′27″N   98°39′09″E
temp.,
°C
wind,
m/s
gust,
m/s
humid.,
%
clouds,
%
prec.,
mm/h
press.,
hPa
HPBL,
m
11 may, tue
tue1101:00+24e119546 0.0 100919
04:00+23e119579 0.0 100722
07:00+25ese119288 0.0 100958
10:00+32e125922 0.0 10101246
13:00+31s125985 1.1 10081359
16:00+30w126680 2.9 1005924
19:00+25w01895 4.9 100716
22:00+25se11935 0.0 100926
12 may, wed
wed1201:00+24ese119571 0.0 100719
04:00+23ene009684 0.0 100718
07:00+24e009293 0.0 100947
10:00+31nnw115896 0.0 1010955
13:00+35wnw124541 0.0 10071940
16:00+32w2157100 0.0 1004954
19:00+26w1184100 0.3 100745
22:00+25wsw018997 0.0 100844
13 may, thu
thu1301:00+25e009213 0.1 100719
04:00+24se119439 0.0 100621
07:00+25ene118959 0.0 100765
10:00+32ne015598 0.0 10081207
13:00+35wnw224490 0.0 10061988
16:00+28w2378100 1.4 1004287
19:00+26w119150 3.0 100631
22:00+25sse119248 0.0 100719
14 may, fri
fri1401:00+24ese1193100 0.0 100618
04:00+24ese1194100 0.0 100618
07:00+25ese009136 0.0 100749
10:00+32nnw115469 0.0 10081149
13:00+35wnw234474 0.0 10052022
16:00+29wnw127214 0.8 1004427
19:00+26w118696 1.7 100521
22:00+25ese119213 0.0 100718
15 may, sat
sat1501:00+24se119256 0.0 100618
04:00+24ese119195 0.0 100519
07:00+25ne00866 0.0 100750
10:00+32nw115319 0.0 10081195
13:00+34w234787 0.0 10051900
16:00+27wnw118477 2.1 100557
19:00+26w01901 3.2 100621
22:00+25s01911 0.0 100718